N3WKE Weather Reports


time (UTC)temp
F
wind
direction
speed
knots
gust
knots
rain 1hr
in
rain 24hr
in
rain mn
in
humidity
%
barometer
mb
20260504044546 48 264 0.0 0.0 0.00 0.00 0.00 63 1014.4
20260504043036 48 260 0.0 0.0 0.00 0.00 0.00 63 1014.3
20260504041545 48 258 0.0 1.7 0.00 0.00 0.00 64 1014.3
20260504040046 49 256 0.0 0.0 0.00 0.00 0.00 63 1014.3
20260504034550 49 260 0.0 0.0 0.00 0.00 0.00 62 1014.1
20260504033051 50 263 0.0 0.0 0.00 0.00 0.00 60 1013.9
20260504031602 50 263 0.0 0.0 0.00 0.00 0.00 60 1013.8
20260504030025 51 265 0.0 0.0 0.00 0.00 0.00 58 1013.8
20260504024600 51 265 0.0 0.0 0.00 0.00 0.00 58 1013.7
20260504023028 52 265 0.0 0.0 0.00 0.00 0.00 57 1013.8
20260504021558 52 267 0.0 0.0 0.00 0.00 0.00 55 1013.6
20260504020036 53 267 0.0 0.0 0.00 0.00 0.00 54 1013.7
20260504014544 54 267 0.0 0.0 0.00 0.00 0.00 52 1013.6
20260504013041 55 267 0.0 0.0 0.00 0.00 0.00 51 1013.5
20260504011544 55 267 0.0 0.0 0.00 0.00 0.00 46 1013.4
20260504010039 56 267 0.0 0.0 0.00 0.00 0.00 45 1013.4
20260504004600 57 267 0.0 0.0 0.00 0.00 0.00 42 1013.2
20260504003042 59 267 0.0 0.0 0.00 0.00 0.00 41 1013.1
20260504001559 60 267 0.0 0.0 0.00 0.00 0.00 37 1012.9
20260504000028 60 265 0.0 1.7 0.00 0.00 0.00 36 1012.8
20260503234555 61 282 0.0 0.9 0.00 0.00 0.00 34 1012.7
20260503233030 62 256 0.0 0.0 0.00 0.00 0.00 34 1012.5
20260503231556 62 292 0.0 8.7 0.00 0.00 0.00 32 1012.4
20260503230032 63 296 0.0 9.6 0.00 0.00 0.00 32 1012.4
20260503224558 63 296 0.0 10.4 0.00 0.00 0.00 33 1012.5
20260503223029 63 255 0.0 8.7 0.00 0.00 0.00 31 1012.4
20260503221559 63 269 0.0 11.3 0.00 0.00 0.00 32 1012.4
20260503220039 63 281 0.0 7.0 0.00 0.00 0.00 32 1012.7
20260503214544 62 237 0.9 12.2 0.00 0.00 0.00 32 1012.5
20260503213035 62 242 3.5 13.9 0.00 0.00 0.00 31 1012.4
20260503211546 63 290 0.0 9.6 0.00 0.00 0.00 31 1012.5
20260503210039 62 267 1.7 11.3 0.00 0.00 0.00 31 1012.5
20260503204547 62 300 1.7 10.4 0.00 0.00 0.00 33 1012.6
20260503203040 62 21 0.9 11.3 0.00 0.00 0.00 34 1012.8
20260503201549 61 340 0.0 13.9 0.00 0.00 0.00 34 1012.9
20260503200028 61 279 2.6 15.6 0.00 0.00 0.00 35 1013.1
20260503194555 61 336 0.0 7.0 0.00 0.00 0.00 35 1013.3
20260503193036 60 300 0.9 13.0 0.00 0.00 0.00 37 1013.5
20260503191558 60 323 0.0 9.6 0.00 0.00 0.00 36 1013.6
20260503190047 59 252 4.3 13.0 0.00 0.00 0.00 36 1013.7
20260503184558 59 262 0.0 7.0 0.00 0.00 0.00 37 1013.9
20260503183037 59 343 0.0 12.2 0.00 0.00 0.00 38 1014.2
20260503181547 58 290 1.7 12.2 0.00 0.00 0.00 38 1014.2
20260503180024 57 302 0.9 10.4 0.00 0.00 0.00 39 1014.4
20260503174607 57 234 0.9 15.6 0.00 0.00 0.00 40 1014.5
20260503173028 57 243 3.5 18.2 0.00 0.00 0.00 39 1014.5
20260503171558 56 344 0.0 16.5 0.00 0.00 0.00 40 1014.7
20260503081553 43 284 0.0 6.1 0.00 0.00 0.00 71 1012.7
20260503071554 43 265 0.0 2.6 0.00 0.00 0.00 71 1012.2